GFSSW_850_thetae_003.txt.gz
Theta_e
310 311 311 311 311 312 312 312 313 314 313 312 314 317 317 313 313 312 312 312 313 316 318 318 318 318 317 316 314 312 306 308 311 311 312 312 313 315 315 318 317 324 323 326 333
312 312 312 312 313 313 313 312 313 314 312 314 316 316 318 314 312 312 313 316 318 318 318 319 319 317 316 316 315 310 306 310 311 311 311 313 313 314 314 320 326 324 323 325 332
313 313 313 313 313 313 313 313 315 313 313 315 315 317 319 316 313 316 319 318 318 318 318 319 318 318 317 317 315 312 311 312 314 314 313 314 315 315 313 315 324 323 323 326 332
313 313 314 313 312 312 313 314 314 312 313 314 315 318 318 318 311 318 318 318 318 317 318 318 319 318 315 316 316 314 314 315 315 315 315 315 316 315 315 315 317 319 320 324 326
313 313 312 312 312 313 314 315 314 313 313 314 315 318 317 316 318 318 318 318 318 317 318 318 318 318 317 318 317 315 315 316 317 317 316 316 315 314 316 316 317 320 324 324 322
313 312 312 313 313 314 315 316 316 314 313 314 318 319 318 316 318 318 318 318 318 316 316 318 318 318 318 318 316 318 317 317 318 317 316 315 315 315 317 316 316 318 323 323 323
314 314 315 315 315 315 316 316 316 314 315 318 318 318 317 317 318 318 318 318 317 317 318 319 319 318 318 318 319 318 316 314 316 317 316 316 312 312 316 315 316 317 321 324 324
315 315 315 314 314 315 314 315 315 317 317 317 319 319 318 318 318 318 318 318 317 318 319 319 320 319 318 317 317 314 313 313 314 314 315 313 311 312 314 316 315 316 319 319 318
316 316 316 316 316 316 315 315 316 316 317 317 318 318 318 318 318 317 316 315 316 319 319 319 319 318 317 311 311 310 313 314 315 315 315 313 311 312 316 316 316 315 316 317 317
316 316 316 316 316 316 316 316 316 317 318 319 319 318 318 318 317 316 316 316 318 319 319 319 319 311 309 310 312 315 313 313 314 314 314 315 312 311 316 314 314 314 314 315 315
316 316 316 316 316 321 320 318 319 318 317 316 317 316 316 317 317 317 314 316 318 318 315 316 312 313 314 314 315 315 315 316 315 314 316 316 313 313 312 312 312 312 313 315 316
316 316 316 316 316 320 320 322 321 320 318 317 316 315 316 317 317 317 315 317 317 314 313 314 315 315 314 314 314 315 316 315 314 314 315 315 315 309 310 311 311 313 315 315 315
316 316 315 315 317 315 317 319 317 320 318 316 317 317 317 317 316 317 316 317 316 314 314 314 316 314 315 313 313 313 316 315 316 314 315 315 316 312 312 313 313 313 314 314 315
316 316 316 315 316 316 315 316 318 319 312 315 317 317 317 316 317 316 317 317 315 315 314 316 313 314 313 314 314 315 314 315 315 317 317 314 317 315 312 313 313 312 313 314 315
315 316 316 315 316 320 315 316 317 323 314 316 316 317 317 316 316 318 318 317 315 316 313 316 313 313 314 315 314 315 314 314 317 316 317 315 314 315 312 314 312 312 314 315 315
314 315 316 316 319 320 319 314 319 318 321 317 317 317 317 316 316 318 317 318 317 316 315 315 314 314 315 315 316 315 316 315 315 315 317 317 316 313 313 313 313 313 314 314 314
314 315 315 316 318 317 319 316 320 315 319 318 317 316 316 315 315 316 316 315 315 313 316 317 317 315 316 316 315 314 315 314 314 314 317 316 315 313 314 313 313 313 314 315 315
316 314 315 316 320 317 316 317 318 319 317 317 316 316 316 314 315 316 316 315 314 315 315 319 317 317 316 316 317 317 316 313 317 315 316 315 318 316 314 314 313 316 314 315 316
316 317 316 314 317 317 324 313 313 315 315 316 316 317 317 317 316 316 316 316 315 314 317 317 318 316 317 317 316 318 316 315 313 304 310 315 317 314 313 314 314 315 314 314 314
319 316 315 315 318 325 314 314 315 315 316 317 318 317 318 318 318 316 316 316 316 316 315 317 320 317 316 317 316 316 315 316 312 313 319 319 317 317 316 315 314 312 311 312 312
326 316 318 320 324 320 310 309 314 316 317 318 318 319 319 319 318 318 318 317 316 316 316 315 317 315 314 317 317 315 315 315 316 313 317 315 317 314 314 313 313 311 312 312 312
325 315 321 323 321 314 312 315 316 317 318 317 317 317 318 317 318 319 319 318 317 317 317 315 311 312 316 313 314 316 315 314 315 315 311 308 316 313 313 313 312 312 313 312 312
320 320 322 323 311 305 315 316 316 316 316 317 317 317 317 317 318 318 318 317 316 317 317 314 311 311 312 312 312 316 315 314 310 307 313 310 312 311 313 312 312 312 313 312 312
319 311 319 321 317 314 315 316 316 317 317 317 316 317 316 316 314 316 317 317 317 317 316 315 312 312 313 312 313 316 315 315 313 305 312 313 314 313 311 311 311 312 312 312 311
318 316 318 310 314 316 316 317 317 318 317 316 316 316 316 314 314 317 316 315 316 316 315 312 314 313 312 313 314 315 316 316 315 313 315 314 312 311 310 311 312 312 311 311 310
319 319 317 317 317 313 310 316 317 316 317 316 316 316 316 317 316 318 317 315 315 315 314 312 310 314 313 313 314 315 314 313 313 313 311 311 310 309 312 312 312 312 311 310 309
319 319 317 313 310 309 309 315 316 316 316 316 316 313 312 317 318 317 317 317 316 314 311 312 306 307 309 309 308 310 310 312 311 310 310 310 309 311 311 311 312 311 311 310 309

GFSSW_850_thetae_009.txt.gz
Theta_e
310 310 310 310 310 311 311 311 311 313 312 312 315 316 313 312 315 317 317 317 317 318 317 316 318 316 315 313 312 312 312 312 311 311 312 311 313 313 318 320 319 322 324 324 330
311 310 310 310 311 311 311 311 312 313 312 314 315 316 314 315 317 317 317 317 317 318 318 317 316 315 315 314 313 311 313 312 310 310 312 312 312 312 315 319 323 322 323 325 329
312 311 311 311 311 311 312 312 313 312 313 314 315 317 314 315 316 318 317 317 317 318 318 316 317 317 316 315 313 312 314 312 312 311 313 313 314 313 315 318 318 318 322 324 329
313 312 312 312 312 312 312 313 313 313 314 314 316 317 316 315 317 318 317 317 317 318 318 319 318 318 315 316 313 315 312 313 313 313 314 314 314 313 314 315 316 317 320 322 328
313 313 313 313 313 312 313 313 312 314 314 316 317 316 317 317 317 318 317 317 317 318 318 318 318 317 317 316 316 315 314 314 314 314 314 314 314 314 314 315 315 317 321 322 324
312 312 312 312 312 313 314 312 313 314 315 317 317 316 316 316 318 317 317 317 317 318 318 318 317 318 317 315 316 316 315 314 315 314 315 315 314 314 314 315 315 315 319 322 321
311 311 311 312 313 314 313 313 313 315 317 318 316 316 317 317 317 317 316 316 317 318 319 319 317 317 317 317 316 315 315 314 313 313 314 313 315 315 314 314 314 314 318 322 323
313 313 314 314 315 315 314 313 315 317 317 318 317 317 317 317 316 315 314 315 318 319 319 319 318 317 315 316 313 314 314 317 314 315 315 314 318 316 313 313 315 315 314 322 325
314 314 314 314 314 315 314 315 316 317 317 318 318 317 317 316 316 315 315 317 318 319 319 319 317 315 313 314 315 314 315 315 316 313 316 317 319 316 313 313 314 314 314 316 323
315 316 316 315 315 315 315 316 317 318 317 317 317 316 316 316 316 314 317 318 318 318 317 318 315 315 314 314 315 316 315 315 315 315 317 317 317 315 310 309 311 312 312 313 321
316 315 316 320 316 315 316 317 317 316 315 315 315 315 316 316 316 315 317 317 316 316 316 313 316 315 314 313 313 314 314 316 315 314 317 316 316 313 311 310 310 310 311 313 315
315 316 317 320 318 319 317 317 317 316 314 315 315 315 316 316 317 317 317 316 315 314 313 315 315 313 312 312 313 314 315 314 314 313 316 317 316 312 312 310 310 312 313 314 314
315 316 317 316 319 318 316 317 318 317 315 316 316 316 316 317 317 317 317 317 313 314 313 316 313 312 313 314 316 315 315 315 316 315 314 315 317 315 312 311 312 313 313 314 314
315 315 316 316 317 318 317 317 318 319 314 314 315 316 316 315 315 317 316 315 314 313 314 313 312 314 315 315 314 317 313 316 316 318 320 314 320 317 313 313 312 312 313 314 314
315 315 315 316 315 317 316 316 318 324 315 314 316 316 316 315 314 316 316 317 315 314 315 313 314 315 317 315 314 318 314 315 316 318 318 319 319 318 314 314 313 313 312 313 313
315 315 315 316 315 316 315 316 323 317 316 316 315 315 315 316 316 316 316 316 315 315 316 315 314 314 315 313 314 314 316 314 314 317 322 317 318 318 317 315 313 313 312 312 312
314 315 315 317 317 316 315 318 318 317 316 316 315 314 313 314 315 315 314 315 316 315 318 317 316 315 314 317 316 317 315 319 323 323 323 316 317 317 315 312 312 312 311 312 313
314 315 315 318 316 317 316 317 318 316 316 314 314 314 315 314 315 315 316 316 315 314 317 319 318 317 315 316 317 317 317 321 319 322 321 315 319 317 314 313 312 312 311 312 312
314 314 315 315 316 316 322 316 315 314 314 315 315 316 317 317 315 315 315 316 315 315 318 319 318 315 315 315 315 318 320 314 315 306 319 318 317 315 314 314 313 311 311 311 312
315 314 315 317 316 321 315 313 313 313 315 315 317 316 317 318 317 316 316 315 315 314 314 317 319 315 315 315 315 316 314 319 318 321 319 318 318 318 315 315 312 311 312 312 312
316 317 321 319 323 318 313 310 313 316 316 316 317 318 317 318 316 317 316 315 314 315 314 313 316 315 314 316 317 318 317 315 316 317 322 321 319 315 314 314 313 311 311 312 312
319 317 322 323 315 309 312 313 316 315 316 316 315 316 317 316 317 318 318 316 314 315 317 313 313 315 315 313 314 314 315 313 316 314 315 315 316 312 313 313 312 312 312 312 312
320 320 320 320 313 308 313 314 315 315 314 315 316 315 314 315 317 317 316 315 315 315 316 313 314 314 311 313 312 316 315 312 311 312 317 318 316 311 311 311 311 312 312 312 311
318 316 317 316 313 313 314 314 316 315 315 315 314 315 315 315 315 317 316 315 315 315 314 313 312 312 313 311 312 314 315 313 315 317 316 316 315 315 314 313 311 310 312 311 310
317 315 314 312 314 313 313 314 316 315 315 315 315 314 315 315 315 316 316 314 313 314 314 314 316 313 313 313 313 314 314 314 315 316 316 316 315 315 313 312 310 311 310 310 310
318 317 315 313 313 313 309 315 316 315 314 316 316 315 314 315 314 315 316 314 314 313 313 310 314 312 313 311 311 312 312 312 313 314 314 315 315 313 311 310 311 310 310 309 308
318 317 317 308 307 310 310 314 315 314 314 315 314 313 311 314 315 315 315 314 313 313 312 312 311 311 312 309 310 312 309 311 312 312 312 313 312 309 310 311 311 310 308 307 303

GFSSW_850_thetae_012.txt.gz
Theta_e
311 310 310 310 310 310 310 310 311 312 313 312 315 315 312 313 317 317 318 317 317 317 316 316 317 317 314 313 313 313 317 317 316 316 316 315 316 316 319 321 321 323 325 327 332
312 311 310 310 310 310 311 311 311 313 312 315 315 315 314 317 317 317 317 316 317 318 317 317 316 315 316 316 316 317 318 316 315 316 317 316 316 316 317 318 320 323 326 330 334
312 311 311 310 310 311 311 311 312 312 314 315 316 314 316 316 318 318 317 316 318 317 317 316 316 318 318 318 317 317 317 316 315 315 316 316 315 315 316 317 317 318 324 330 333
313 312 311 311 311 311 312 312 313 312 315 316 317 314 314 315 319 318 317 317 318 317 317 317 318 319 318 318 317 317 316 316 315 315 316 316 316 316 316 316 317 318 322 327 330
313 312 312 312 312 312 312 313 312 314 314 317 316 316 317 318 318 317 317 317 318 318 318 319 318 318 318 318 318 318 318 317 316 315 316 315 317 318 317 316 315 320 324 325 327
313 313 313 313 312 312 313 312 314 314 316 317 316 316 318 318 317 317 317 317 318 319 318 319 319 319 319 319 320 319 319 318 317 317 317 318 318 318 317 316 316 319 323 325 326
312 312 312 312 312 313 312 313 314 316 317 317 316 316 318 318 317 316 316 317 317 318 319 318 318 319 320 321 318 318 320 320 318 318 318 316 319 319 316 316 316 317 320 324 325
311 311 311 312 314 313 313 314 316 317 318 317 316 317 318 316 316 314 315 316 318 319 319 318 317 318 319 318 318 320 320 320 319 319 319 320 321 319 318 317 318 318 318 322 324
313 314 314 315 314 313 313 315 316 316 318 317 317 318 317 316 316 314 315 317 319 319 318 317 317 318 318 321 320 319 318 319 320 319 320 321 321 321 317 316 319 318 318 319 323
314 314 314 315 314 314 315 316 316 317 317 317 317 317 316 316 315 314 317 318 318 318 319 319 319 320 320 318 318 318 318 319 318 319 319 320 321 319 316 315 318 319 318 317 321
316 316 315 315 315 315 316 316 316 317 316 316 316 316 316 316 316 316 317 316 317 319 321 318 320 320 319 319 318 318 318 319 318 318 320 321 320 318 317 317 318 317 317 318 320
316 319 320 315 315 316 317 320 316 316 316 315 315 316 317 317 318 318 317 318 319 320 319 320 320 317 318 318 318 318 319 319 319 318 320 321 320 318 317 317 317 318 317 318 317
318 316 318 319 319 318 317 317 315 315 317 317 316 316 316 318 318 318 317 317 319 319 319 319 317 316 318 320 320 320 319 320 320 320 320 321 322 319 317 317 316 317 317 317 317
316 317 316 318 318 316 317 317 316 317 319 317 317 317 316 316 318 317 316 317 318 318 318 318 317 319 320 320 320 320 318 320 320 321 322 321 323 320 318 318 317 317 317 316 316
315 316 316 316 318 318 316 317 320 323 322 317 318 317 317 318 317 318 317 318 319 318 319 317 319 320 320 319 320 321 319 320 321 322 322 323 323 322 319 318 317 317 316 316 315
314 315 315 315 317 317 316 317 325 326 320 319 318 318 319 319 318 318 318 317 317 319 320 319 317 320 320 318 318 319 320 320 321 324 326 323 323 323 321 319 318 316 316 316 316
315 315 315 315 317 315 315 321 323 323 319 318 318 319 319 319 319 319 320 320 321 321 321 320 320 319 319 320 320 321 322 324 327 327 326 320 321 322 318 317 317 317 317 316 316
314 315 315 315 316 315 317 326 322 320 320 317 318 319 320 319 319 320 320 321 320 320 321 321 323 321 319 320 321 321 322 325 324 324 323 320 321 322 318 317 316 316 315 315 315
314 315 315 317 315 316 323 326 323 320 318 319 319 319 320 320 320 320 320 320 319 319 322 321 321 319 318 318 319 321 323 319 322 317 325 321 321 319 318 317 316 316 316 315 315
315 315 315 315 316 317 325 318 318 316 318 318 320 320 321 321 321 321 321 318 319 318 318 320 322 318 318 318 319 320 319 322 321 327 318 317 319 319 320 319 316 316 316 315 315
315 319 317 317 320 321 325 319 318 317 318 320 321 321 321 321 321 321 320 318 318 318 318 317 319 318 318 321 321 321 321 319 319 321 321 320 317 319 318 317 316 316 315 315 314
317 323 321 322 322 318 321 319 317 318 318 319 320 321 321 321 322 321 321 320 317 318 319 318 319 317 317 317 317 318 319 318 319 318 319 320 317 316 317 316 315 315 314 314 314
322 322 321 320 327 324 318 318 317 319 318 320 320 320 319 321 322 321 320 317 317 319 319 318 318 316 317 318 318 319 318 317 317 317 319 321 318 315 315 315 314 314 314 314 313
321 329 319 318 316 320 320 320 319 317 318 318 318 319 320 321 320 321 321 318 317 317 314 316 318 317 314 314 315 315 315 316 317 320 318 318 317 316 315 315 314 314 314 313 312
319 322 318 325 321 320 320 320 320 319 318 318 319 320 320 321 320 321 320 318 316 315 317 319 317 317 316 316 315 316 315 315 316 317 318 317 316 316 315 314 313 313 313 312 312
321 321 317 317 317 319 318 320 319 318 319 319 320 319 318 318 316 318 316 316 315 317 317 316 318 315 315 314 315 315 315 315 315 316 316 316 316 314 312 312 313 313 312 311 310
318 317 320 312 317 322 321 320 319 318 317 318 319 318 319 317 316 317 317 316 316 316 317 318 318 317 320 314 315 318 316 315 315 315 315 316 315 313 314 313 313 312 310 308 305

GFSSW_850_thetae_015.txt.gz
Theta_e
311 311 311 310 310 310 310 310 310 310 313 312 315 314 312 314 317 317 320 318 317 316 315 317 317 319 317 317 317 318 320 319 319 319 318 317 318 317 319 320 321 321 325 327 331
312 312 311 310 310 310 310 310 310 311 312 314 315 313 315 317 318 319 317 316 317 316 316 319 319 318 318 318 318 319 320 319 318 319 318 317 317 317 319 319 320 322 323 329 331
312 312 311 311 310 310 310 311 311 313 313 315 315 313 317 317 321 318 317 317 318 316 319 319 317 318 319 318 318 319 319 318 317 317 317 317 317 316 318 319 320 321 322 328 329
313 312 312 311 310 311 311 311 312 312 315 316 315 315 316 316 321 319 317 318 317 316 319 319 319 319 319 319 318 318 318 317 316 316 317 317 317 317 318 318 317 319 323 327 328
313 313 312 311 311 311 311 312 312 314 314 316 315 314 316 321 319 318 317 318 319 319 319 319 319 319 319 318 318 318 318 316 316 316 317 317 318 319 317 317 317 320 323 326 328
313 313 312 312 312 312 312 313 313 314 316 317 315 314 318 321 318 318 318 318 320 319 319 319 319 319 318 318 320 319 320 320 319 319 318 319 319 319 319 317 317 319 322 324 325
313 313 312 312 312 312 313 313 314 316 317 316 315 316 321 319 318 317 317 318 318 320 320 319 319 318 319 321 320 320 321 321 321 320 320 319 320 320 319 319 318 318 321 323 324
312 312 312 312 312 313 313 314 315 317 317 316 315 317 321 317 318 317 317 317 318 320 320 319 319 321 321 321 320 321 322 323 322 321 321 321 323 321 320 320 319 320 319 321 323
311 311 312 313 313 313 314 314 316 317 317 316 316 320 319 316 317 317 316 318 319 320 319 318 320 320 321 322 322 321 323 321 322 321 322 322 323 322 321 320 320 320 320 320 322
313 313 314 313 313 313 313 316 316 317 317 317 319 320 316 317 316 316 316 318 320 320 320 320 321 322 322 322 322 321 319 320 320 321 320 321 321 322 320 320 320 321 320 320 321
314 315 315 314 314 313 316 316 318 319 318 319 317 318 316 316 315 317 317 319 320 321 323 321 323 323 322 320 320 319 319 320 321 320 320 321 321 321 321 321 322 322 321 320 321
316 315 315 314 314 316 317 323 323 319 317 317 317 318 317 317 318 318 319 320 320 321 321 320 322 320 320 320 320 320 321 321 321 320 320 322 322 321 320 321 321 321 321 322 321
319 320 316 315 315 316 324 324 317 318 318 318 318 318 318 319 319 319 319 319 320 320 319 322 321 318 320 321 321 322 321 323 322 322 322 322 323 321 320 319 320 320 320 320 319
317 319 319 319 319 322 324 316 316 318 321 318 318 318 318 319 319 319 319 319 319 319 320 321 320 320 321 322 322 323 321 321 322 322 323 323 324 323 321 320 320 320 319 319 318
316 316 318 320 321 320 320 316 316 322 324 319 319 318 318 320 320 320 319 320 320 320 321 321 321 322 322 321 321 323 322 322 322 323 323 323 322 324 321 321 320 320 319 318 318
315 316 316 317 322 320 317 318 318 329 323 320 319 321 321 320 320 320 320 320 320 320 321 321 320 322 322 321 320 321 323 323 324 325 326 325 324 326 324 322 320 319 319 319 318
314 315 317 318 322 316 316 322 322 327 320 320 320 321 321 321 321 322 322 323 324 324 324 322 322 322 321 323 323 323 324 328 328 328 328 323 321 325 321 321 320 319 319 319 319
315 315 315 315 316 315 316 324 327 322 321 320 320 321 322 321 322 321 322 323 322 322 322 323 326 322 321 322 323 322 324 328 325 326 324 323 321 324 321 319 319 318 318 318 318
315 315 318 316 316 315 323 328 324 321 320 320 320 321 321 321 322 322 322 322 321 322 324 323 324 321 321 321 322 323 324 321 325 322 326 322 322 322 321 320 319 318 318 318 317
319 319 321 317 315 318 328 323 322 320 320 320 321 322 322 322 322 323 322 321 320 319 320 321 325 320 320 321 321 322 321 325 323 326 320 319 318 322 322 321 319 318 318 317 317
320 319 320 315 316 324 328 323 320 319 320 322 322 322 323 322 323 323 322 320 320 320 319 319 320 321 319 322 322 323 323 321 319 321 322 320 319 319 319 319 318 317 316 316 316
320 323 317 316 322 325 325 321 319 320 321 322 322 323 323 323 323 323 323 323 319 320 321 319 320 320 318 319 320 320 321 320 320 318 319 320 320 318 318 317 316 316 316 316 315
321 323 319 321 329 329 322 321 321 321 321 322 323 323 323 323 324 323 322 320 320 321 322 320 321 319 319 321 320 320 319 318 318 318 318 324 320 317 317 317 316 315 316 315 314
323 329 322 323 322 323 323 322 322 320 321 321 322 322 323 323 323 323 323 320 320 320 315 318 319 318 319 317 316 316 316 316 317 320 320 319 318 318 317 317 315 315 315 315 313
323 326 323 327 324 323 323 322 322 321 321 321 322 322 323 323 323 323 322 321 319 316 318 319 319 319 318 316 315 316 316 316 316 316 318 318 318 317 317 316 315 315 314 313 313
321 323 322 324 322 323 319 322 321 321 321 321 322 322 321 322 319 321 320 317 317 318 318 318 320 318 317 316 315 316 315 315 316 316 317 317 317 316 315 315 315 313 313 312 311
318 320 323 319 323 324 323 322 321 321 320 320 321 320 321 319 319 319 318 318 317 318 319 319 320 318 320 318 317 320 318 315 316 316 316 317 316 315 315 314 313 312 313 311 308

GFSSW_850_thetae_021.txt.gz
Theta_e
312 312 312 312 311 310 310 310 309 309 309 309 312 311 314 311 312 313 316 320 320 319 314 314 316 317 318 319 319 319 313 315 315 316 316 319 316 318 322 322 327 327 330 329 326
312 312 312 312 311 311 310 310 309 309 309 311 312 314 313 312 315 316 322 321 317 316 313 314 318 319 319 319 319 316 313 314 315 314 313 316 316 317 319 322 329 329 330 329 326
313 313 312 312 312 311 310 310 309 310 310 312 313 314 313 315 317 319 318 317 316 314 315 319 320 320 319 319 318 317 314 314 315 316 317 315 316 318 318 316 328 329 329 327 326
313 313 313 312 311 311 310 310 310 310 312 313 314 314 314 316 325 317 318 317 314 314 317 320 320 319 317 316 318 315 315 316 316 316 316 314 316 316 317 319 322 330 330 328 328
313 313 313 312 311 310 310 310 310 311 312 314 315 314 315 316 320 317 318 318 315 317 320 320 321 319 317 317 317 314 314 316 316 317 317 317 317 317 317 319 321 329 329 328 328
313 313 313 312 311 310 310 310 311 312 314 315 315 315 315 321 319 318 318 318 319 319 321 320 320 319 318 319 316 316 316 315 316 317 317 316 318 318 317 318 321 327 329 328 327
313 313 313 312 311 311 311 311 312 314 314 316 315 315 315 319 319 318 318 318 319 320 320 319 319 319 319 318 319 318 316 316 316 317 317 318 317 316 317 317 320 323 327 327 327
312 313 312 312 311 311 311 312 313 314 316 316 315 315 315 320 319 318 317 318 318 319 320 319 319 320 321 319 319 318 317 317 317 317 318 317 316 316 318 317 319 319 322 325 327
311 312 312 312 312 312 312 313 314 316 316 316 315 315 321 319 316 317 317 318 318 319 319 318 319 320 320 317 316 318 316 319 318 319 318 317 317 317 319 319 318 319 319 321 324
311 311 312 312 312 312 313 314 315 316 316 316 317 323 320 318 317 317 317 318 319 320 319 319 320 318 315 315 318 319 317 319 318 318 318 317 317 317 319 320 321 320 319 319 322
311 311 312 312 312 313 314 315 317 318 318 316 318 322 318 316 316 316 317 319 320 321 319 320 318 318 318 318 318 318 318 318 318 318 318 318 315 318 320 321 320 320 321 322 322
314 313 313 312 313 313 315 321 323 324 319 318 319 319 317 317 317 318 318 319 320 320 320 319 319 318 319 319 319 319 320 321 319 319 318 317 318 317 319 320 320 321 321 321 321
315 314 313 313 313 315 317 327 325 323 320 318 318 317 318 319 319 318 319 320 320 319 320 319 319 319 319 320 320 321 321 320 320 318 319 319 317 318 319 320 320 320 320 320 320
316 314 314 313 314 316 318 325 325 317 316 317 318 317 318 319 319 319 319 320 319 320 319 319 319 320 320 321 319 323 322 321 320 319 319 317 318 318 318 318 318 318 319 319 320
319 317 315 315 325 324 325 323 317 319 318 317 319 317 318 320 319 319 317 320 319 319 319 320 320 321 322 321 320 322 321 321 321 320 320 320 319 318 317 319 318 318 319 319 319
317 319 317 320 327 325 323 317 315 326 320 320 319 319 317 320 321 318 319 320 320 319 318 319 321 320 320 321 320 320 322 322 322 321 321 325 322 324 319 320 319 318 319 319 319
316 317 319 323 328 321 317 316 320 323 321 318 319 320 320 320 321 320 319 320 321 321 320 320 321 321 321 321 321 321 321 322 323 323 323 325 324 324 320 319 319 318 319 319 319
315 317 318 320 323 317 317 324 327 323 320 319 320 321 321 321 321 321 321 320 319 323 323 323 323 320 320 320 320 322 322 318 326 322 321 322 323 320 318 319 319 319 319 319 319
314 315 315 316 317 317 325 324 326 323 320 320 320 322 321 321 321 322 320 320 318 318 323 325 322 319 319 319 319 321 319 319 321 320 317 320 321 319 318 319 319 318 319 319 318
314 315 317 315 314 316 325 326 325 321 320 320 321 321 321 320 321 322 322 321 319 319 319 320 322 319 319 319 321 319 318 320 317 320 321 318 322 323 320 320 320 318 317 317 316
317 318 320 320 314 320 324 328 322 320 322 323 322 321 323 320 321 322 322 320 320 320 317 317 321 320 318 318 318 319 321 319 318 316 317 316 316 316 319 320 319 316 317 316 315
322 319 324 316 319 323 323 326 320 320 321 323 323 321 323 322 323 323 323 321 320 321 319 316 318 315 319 318 318 318 319 319 314 318 313 313 315 315 315 316 317 315 315 315 314
322 323 321 317 317 317 324 322 321 320 321 321 323 323 322 324 323 324 323 321 321 319 319 318 318 316 320 320 319 317 318 317 318 311 314 309 311 315 318 317 317 315 315 314 314
326 320 320 323 326 326 325 322 322 322 322 323 322 322 323 323 323 324 322 321 318 316 315 318 318 316 316 317 315 315 315 314 316 313 314 314 316 315 316 317 314 314 314 314 313
325 323 318 316 318 322 324 322 323 322 322 322 322 322 323 323 323 323 322 321 320 316 318 317 318 318 317 315 315 314 314 313 314 313 313 312 316 316 314 313 314 314 313 313 312
325 326 318 319 316 322 320 322 323 322 321 322 321 321 322 322 321 323 321 319 319 317 318 317 316 315 315 316 314 314 313 314 314 315 315 314 316 315 314 313 311 313 312 311 309
324 321 326 324 320 321 321 323 323 322 321 322 321 319 316 319 319 319 318 317 319 317 318 318 311 310 315 314 313 312 315 315 315 315 315 314 315 313 311 311 312 310 310 308 307

GFSSW_850_thetae_024.txt.gz
Theta_e
312 312 312 312 312 311 311 310 309 309 308 308 309 311 311 313 312 311 312 316 318 319 317 315 314 316 317 318 318 317 313 312 314 318 317 316 317 322 331 331 328 330 325 324 324
312 312 312 312 312 312 311 310 309 309 308 309 310 312 312 313 312 313 319 321 317 316 316 314 314 318 318 318 318 315 311 313 313 315 313 315 318 319 325 329 328 328 326 324 324
312 313 313 312 312 312 311 310 309 309 309 309 312 312 314 313 316 316 320 317 317 316 314 314 315 318 318 318 318 313 313 313 314 315 316 315 316 319 325 326 329 327 326 324 323
313 313 313 313 312 311 311 310 309 309 309 311 312 314 313 315 321 318 317 317 316 316 315 316 318 318 317 316 318 313 313 315 315 314 315 314 316 315 318 325 326 329 327 325 324
313 313 313 313 312 311 310 310 309 310 310 312 313 314 314 316 317 318 318 318 318 316 315 317 320 320 315 316 314 312 313 314 316 316 315 315 315 316 315 325 327 329 328 326 325
313 313 313 312 312 311 310 310 310 310 312 313 314 314 315 320 320 318 318 318 318 319 320 319 320 319 318 315 313 314 314 314 315 316 316 316 316 317 317 326 329 328 328 326 324
312 313 313 312 311 310 310 310 310 312 313 314 315 314 315 317 319 318 318 318 318 319 320 319 319 320 319 317 315 315 313 314 314 316 316 318 317 314 319 328 329 329 328 327 326
312 312 312 312 311 310 310 311 312 313 314 315 315 315 315 319 319 318 317 317 317 319 320 319 319 320 319 318 317 316 314 315 316 315 317 316 315 315 319 326 328 329 328 327 327
311 312 312 311 311 311 311 312 313 314 315 315 315 315 314 320 318 317 317 318 318 317 317 317 319 320 319 314 313 314 314 316 317 315 316 315 315 315 316 321 324 327 327 326 325
311 312 312 311 311 311 312 313 314 315 316 316 319 319 315 318 316 317 316 318 319 320 319 319 319 315 313 313 315 315 316 316 316 316 316 316 315 315 315 316 317 315 319 322 324
311 311 312 311 312 312 313 314 316 318 317 314 315 320 319 318 317 317 316 318 320 320 318 319 316 316 316 315 316 316 316 316 317 317 317 315 316 317 318 317 318 320 321 322 323
312 311 311 312 312 313 315 317 326 325 315 313 317 319 318 315 316 316 317 318 319 319 319 316 317 317 317 318 319 318 318 318 317 318 316 315 315 317 316 317 320 320 320 321 321
313 312 312 312 313 314 319 325 324 322 323 318 318 319 318 319 317 317 318 320 319 318 318 317 317 318 319 318 319 320 319 320 319 318 316 314 316 317 317 319 319 320 320 320 319
314 313 313 313 313 314 316 324 323 320 313 317 317 317 319 319 318 318 318 319 319 318 317 318 318 318 319 319 318 322 320 319 319 317 317 315 316 316 316 316 316 317 320 320 319
316 314 313 314 324 318 324 325 321 322 313 315 318 317 318 319 318 317 318 320 318 318 317 319 319 319 319 320 319 320 320 320 320 318 319 319 315 316 317 318 317 316 319 320 319
317 315 314 319 326 324 325 319 320 320 317 318 318 317 317 319 318 318 318 319 320 318 316 318 320 319 319 319 319 319 321 320 319 318 319 323 318 318 316 317 317 317 318 319 318
318 318 320 322 324 323 317 319 317 319 319 318 318 317 317 319 319 318 318 318 320 318 319 319 320 319 320 320 319 317 319 319 321 320 321 323 323 321 318 317 317 316 317 318 318
316 318 322 322 323 320 316 317 325 322 319 317 318 318 319 320 319 320 319 319 317 321 318 320 321 319 318 319 319 320 319 316 326 319 318 318 322 319 318 318 318 318 318 318 318
316 316 316 317 319 318 322 320 323 321 319 319 319 320 320 320 319 319 319 318 317 317 321 321 320 319 318 318 319 320 317 317 318 315 315 319 319 318 317 318 318 319 319 318 316
314 315 315 315 315 316 322 321 324 319 320 318 320 320 320 319 320 320 320 319 318 317 317 319 320 319 318 319 318 316 316 318 314 318 320 316 320 320 318 318 316 315 315 316 315
316 314 315 316 313 317 320 324 322 320 322 321 321 319 320 319 319 321 320 319 318 319 315 318 318 317 319 317 318 317 318 316 314 313 316 315 314 313 318 318 314 314 314 315 314
319 315 322 321 313 318 320 323 320 319 321 321 321 322 320 320 323 322 322 320 320 320 316 316 314 313 319 316 317 317 318 315 311 316 311 310 312 314 313 314 315 314 314 314 313
320 325 323 317 310 310 319 321 320 319 320 321 321 321 321 322 323 323 321 319 317 317 319 315 314 313 318 318 317 317 317 317 313 309 313 308 310 313 315 314 314 314 313 312 312
323 317 321 321 323 317 323 320 321 321 321 321 321 321 321 321 321 322 321 320 316 314 315 318 315 314 316 317 314 314 314 315 314 310 312 311 313 314 314 312 312 313 312 312 312
324 320 316 313 315 320 321 320 321 321 321 321 320 321 321 322 322 321 320 320 318 315 317 314 316 316 315 313 314 313 313 312 312 312 312 311 313 314 312 312 313 313 312 312 310
324 324 317 314 314 318 319 321 321 321 320 321 320 320 320 320 319 321 319 318 317 315 316 315 313 312 313 315 313 312 311 312 313 313 313 314 315 313 312 311 312 312 311 309 308
323 322 320 319 313 316 318 320 321 320 320 320 319 316 315 318 316 318 317 318 317 315 317 314 309 307 309 311 310 309 313 315 314 312 313 312 312 311 310 310 310 309 309 308 307